Palencia Elementary FL US WEATHERSTEM current weather conditions

sailwx.info

Wind from 248 at 0 knots gusting 6

Air temperature 14.9° C
Dewpoint -1.6° C

Last reported at 2020-Jan-25 14:50 UTC.
Time now 2020-Jan-25 15:17 UTC

Location: N 30°01' W 081°23'.
View on Google Maps.

See reports from other nearby stations

  
Tides and Currents Weather Stations Pressure Air Temp Water Temp Dewpoint Dewpoint Depression Visibility Wind Speed Wind Dir Waves Ship Positions
date/time (UTC)wind fromknots sea level pressurealtimeterstation pressurevisibilityair tempwater tempwave heightnotes
2020-Jan-25 14:50 248 0 gusting 6 14.9
2020-Jan-25 14:40 275 7 gusting 9 14.3
2020-Jan-25 14:30 264 6 gusting 7 13.7
2020-Jan-25 14:20 298 1 gusting 8 12.8
2020-Jan-25 14:10 257 1 gusting 6 12.2
2020-Jan-25 14:00 269 2 gusting 6 11.7
2020-Jan-25 13:50 261 2 gusting 6 11.6
2020-Jan-25 13:40 268 2 gusting 4 11.6
2020-Jan-25 13:30 259 0 gusting 5 11.4
2020-Jan-25 13:20 242 1 gusting 5 11.3
2020-Jan-25 13:10 259 1 gusting 5 11.2
2020-Jan-25 13:00 244 2 gusting 3 11.0
2020-Jan-25 12:50 259 1 gusting 2 10.9
2020-Jan-25 12:40 11.1
2020-Jan-25 12:30 11.2
2020-Jan-25 12:20 261 1 gusting 3 11.3
2020-Jan-25 12:10 264 1 gusting 5 11.4
2020-Jan-25 12:00 266 2 gusting 3 11.6
2020-Jan-25 11:50 281 1 gusting 2 11.7
2020-Jan-25 11:40 283 0 gusting 0 11.9
2020-Jan-25 11:30 12.2
2020-Jan-25 11:20 283 0 gusting 1 12.3
2020-Jan-25 11:10 283 0 gusting 2 12.5
2020-Jan-25 11:00 283 0 gusting 2 12.7
2020-Jan-25 10:50 12.9
2020-Jan-25 10:30 259 0 gusting 3 13.2
2020-Jan-25 10:10 265 0 gusting 3 13.4
2020-Jan-25 10:00 13.6
2020-Jan-25 09:50 254 2 gusting 4 13.7
2020-Jan-25 09:40 266 1 gusting 6 13.7
2020-Jan-25 09:30 295 0 gusting 6 13.8
2020-Jan-25 09:20 13.8
2020-Jan-25 09:10 252 1 gusting 6 14.0
2020-Jan-25 09:00 254 3 gusting 4 14.1
2020-Jan-25 08:50 275 1 gusting 6 14.2
2020-Jan-25 08:40 258 1 gusting 6 14.4
2020-Jan-25 08:30 255 0 gusting 6 14.6
2020-Jan-25 08:20 246 1 gusting 5 14.7
2020-Jan-25 08:10 259 2 gusting 6 14.9
2020-Jan-25 08:00 254 2 gusting 6 15.0
2020-Jan-25 07:50 254 2 gusting 3 15.2
2020-Jan-25 07:40 236 2 gusting 6 15.3
2020-Jan-25 07:20 265 3 gusting 3 15.4
2020-Jan-25 07:10 225 0 gusting 1 15.7
2020-Jan-25 07:00 225 0 gusting 1 15.8
2020-Jan-25 06:50 225 0 gusting 3 15.9
2020-Jan-25 06:40 249 0 gusting 5 16.1
2020-Jan-25 06:30 234 0 gusting 6 16.3
2020-Jan-25 06:20 227 1 gusting 4 16.4
2020-Jan-25 06:10 234 2 gusting 6 16.6
2020-Jan-25 06:00 258 3 gusting 5 16.7
2020-Jan-25 05:50 254 3 gusting 8 16.8
2020-Jan-25 05:40 242 2 gusting 9 16.8
2020-Jan-25 05:30 216 4 gusting 7 16.9
2020-Jan-25 05:20 210 0 gusting 4 16.9
2020-Jan-25 05:10 171 0 gusting 6 17.1
2020-Jan-25 05:00 186 4 gusting 6 17.2
2020-Jan-25 04:50 153 3 gusting 5 17.3
2020-Jan-25 04:40 196 4 gusting 4 17.4
2020-Jan-25 04:30 152 1 gusting 3 17.6
2020-Jan-25 04:20 159 1 gusting 2 17.8
2020-Jan-25 04:10 217 2 gusting 4 17.9
2020-Jan-25 04:00 198 2 gusting 4 18.1
2020-Jan-25 03:50 254 1 gusting 6 18.2
2020-Jan-25 03:40 223 1 gusting 6 18.2
2020-Jan-25 03:30 194 2 gusting 4 18.3
2020-Jan-25 03:20 202 1 gusting 6 18.3
2020-Jan-25 03:10 130 3 gusting 5 18.4
2020-Jan-25 03:00 153 0 gusting 6 18.4
2020-Jan-25 02:40 171 1 gusting 4 18.6
2020-Jan-25 02:30 169 1 gusting 4 18.6
2020-Jan-25 02:10 158 2 gusting 4 18.7
2020-Jan-25 02:00 169 1 gusting 3 18.7
2020-Jan-25 01:50 127 1 gusting 3 18.8
2020-Jan-25 01:40 148 0 gusting 4 18.8
2020-Jan-25 01:30 146 1 gusting 2 18.8
2020-Jan-25 01:20 153 2 gusting 5 18.8
2020-Jan-25 01:10 155 0 gusting 3 18.8
2020-Jan-25 01:00 171 0 gusting 3 18.9
2020-Jan-25 00:50 174 1 gusting 3 18.9
2020-Jan-25 00:40 159 1 gusting 4 19.0
2020-Jan-25 00:30 144 1 gusting 2 19.1
2020-Jan-25 00:20 144 0 gusting 2 19.2
2020-Jan-25 00:10 144 0 gusting 2 19.3
2020-Jan-25 00:00 144 1 gusting 2 19.4
2020-Jan-24 23:50 143 1 gusting 2 19.5
2020-Jan-24 23:40 143 0 gusting 2 19.6
2020-Jan-24 23:30 143 1 gusting 3 19.7
2020-Jan-24 23:20 143 1 gusting 2 19.8
2020-Jan-24 23:10 143 0 gusting 2 19.9
2020-Jan-24 23:00 142 1 gusting 3 19.9
2020-Jan-24 22:50 141 1 gusting 3 20.1
2020-Jan-24 22:40 144 0 gusting 3 20.2
2020-Jan-24 22:30 147 1 gusting 2 20.3
2020-Jan-24 22:20 147 0 gusting 3 20.3
2020-Jan-24 22:10 208 1 gusting 4 20.5
2020-Jan-24 22:00 199 2 gusting 5 20.8
2020-Jan-24 21:50 244 6 gusting 6 21.2
2020-Jan-24 21:40 163 4 gusting 6 21.8
2020-Jan-24 21:30 198 0 gusting 1 22.2
2020-Jan-24 21:20 198 0 gusting 1 22.3
2020-Jan-24 21:10 198 0 gusting 5 22.3
2020-Jan-24 21:00 109 6 gusting 6 22.4
2020-Jan-24 20:50 121 3 gusting 8 22.6
2020-Jan-24 20:40 117 3 gusting 7 22.7
2020-Jan-24 20:30 126 4 gusting 7 22.7
2020-Jan-24 20:20 042 2 gusting 5 22.8
2020-Jan-24 20:10 094 0 gusting 6 23.2
2020-Jan-24 20:00 088 3 gusting 6 23.6
2020-Jan-24 19:40 082 3 gusting 9 24.5
2020-Jan-24 19:30 136 6 gusting 10 24.4
2020-Jan-24 19:20 167 2 gusting 10 24.5
2020-Jan-24 19:10 103 5 gusting 8 24.8
2020-Jan-24 19:00 145 4 gusting 9 24.8
2020-Jan-24 18:40 147 3 gusting 8 24.2
2020-Jan-24 18:30 051 1 gusting 6 24.4
2020-Jan-24 18:20 134 6 gusting 8 24.2
2020-Jan-24 18:10 154 6 gusting 7 24.1
2020-Jan-24 18:00 231 5 gusting 8 23.8
2020-Jan-24 17:40 130 7 gusting 10 24.0
2020-Jan-24 17:30 142 4 gusting 9 24.1
2020-Jan-24 17:20 137 6 gusting 8 23.8
2020-Jan-24 17:10 156 4 gusting 8 23.6
2020-Jan-24 17:00 176 6 gusting 13 23.5
2020-Jan-24 16:40 142 3 gusting 9 23.0
2020-Jan-24 16:30 189 2 gusting 7 22.9
2020-Jan-24 16:20 138 3 gusting 7 22.8
2020-Jan-24 16:10 128 2 gusting 8 22.6
2020-Jan-24 16:00 114 6 gusting 8 22.3
2020-Jan-24 15:40 129 4 gusting 11 22.1
2020-Jan-24 15:30 123 4 gusting 12 21.8
2020-Jan-24 15:20 115 7 gusting 12 21.5
2020-Jan-24 15:10 128 6 gusting 13 20.8
2020-Jan-24 15:00 120 6 gusting 10 19.9
2020-Jan-24 14:40 110 2 gusting 10 18.8
2020-Jan-24 14:30 106 6 gusting 8 18.2
2020-Jan-24 14:20 123 4 gusting 8 17.9
2020-Jan-24 14:10 115 6 gusting 7 17.5
2020-Jan-24 14:00 119 4 gusting 7 17.0
2020-Jan-24 13:40 15.6
2020-Jan-24 13:30 15.1
2020-Jan-24 13:20 14.8
2020-Jan-24 13:10 14.7
2020-Jan-24 13:00 14.7
2020-Jan-24 12:50 14.8
2020-Jan-24 12:40 14.9
2020-Jan-24 12:30 15.0
2020-Jan-24 12:20 15.1
2020-Jan-24 12:10 15.1
2020-Jan-24 12:00 15.1
2020-Jan-24 11:50 015 0 gusting 3 15.1
2020-Jan-24 11:40 040 1 gusting 2 15.0
2020-Jan-24 11:30 032 1 gusting 2 15.0
2020-Jan-24 11:20 15.0
2020-Jan-24 11:10 030 0 gusting 1 14.8
2020-Jan-24 11:00 14.8
2020-Jan-24 10:50 14.8
2020-Jan-24 10:40 14.8
2020-Jan-24 10:30 14.9
2020-Jan-24 10:20 14.9
2020-Jan-24 10:10 14.9
2020-Jan-24 10:00 319 0 gusting 1 14.9
2020-Jan-24 09:50 319 0 gusting 1 14.9
2020-Jan-24 09:40 319 0 gusting 2 14.8
2020-Jan-24 09:30 14.8
2020-Jan-24 09:20 14.8
2020-Jan-24 09:10 321 0 gusting 1 14.8
2020-Jan-24 09:00 14.8
2020-Jan-24 08:40 14.7
2020-Jan-24 08:30 14.7
2020-Jan-24 08:20 14.7
2020-Jan-24 08:10 14.6
2020-Jan-24 08:00 14.4
2020-Jan-24 07:50 14.4
2020-Jan-24 07:40 14.4
2020-Jan-24 07:30 14.4
2020-Jan-24 07:20 14.3
2020-Jan-24 07:10 14.3
2020-Jan-24 07:00 14.3
2020-Jan-24 06:50 14.2
2020-Jan-24 06:40 14.2
2020-Jan-24 06:30 14.2
2020-Jan-24 06:20 14.2
2020-Jan-24 06:10 321 0 gusting 0 14.2
2020-Jan-24 06:00 14.2
2020-Jan-24 05:50 14.2
2020-Jan-24 05:40 14.2
2020-Jan-24 05:30 14.2
2020-Jan-24 05:20 321 0 gusting 0 14.4
2020-Jan-24 05:10 321 0 gusting 0 14.4
2020-Jan-24 05:00 321 0 gusting 0 14.4
2020-Jan-24 04:50 14.5
2020-Jan-24 04:40 14.6
2020-Jan-24 04:30 14.7
2020-Jan-24 04:20 14.8
2020-Jan-24 04:10 321 0 gusting 0 14.8
2020-Jan-24 04:00 14.8
2020-Jan-24 03:50 14.8
2020-Jan-24 03:40 14.8
2020-Jan-24 03:30 321 0 gusting 0 14.9
2020-Jan-24 03:20 321 0 gusting 0 14.9
2020-Jan-24 03:10 15.0
2020-Jan-24 03:00 15.0
2020-Jan-24 02:50 15.0
2020-Jan-24 02:30 15.1
2020-Jan-24 02:10 15.1
2020-Jan-24 02:00 327 1 gusting 1 15.1
2020-Jan-24 01:40 317 1 gusting 3 15.1
2020-Jan-24 01:30 322 0 gusting 5 15.1
2020-Jan-24 01:10 319 0 gusting 3 15.0
2020-Jan-24 01:00 313 1 gusting 4 15.0
2020-Jan-24 00:50 307 0 gusting 6 14.9
2020-Jan-24 00:40 355 0 gusting 5 14.9
2020-Jan-24 00:30 314 0 gusting 4 14.9
2020-Jan-24 00:20 316 0 gusting 6 14.8
2020-Jan-24 00:10 302 1 gusting 6 14.8
2020-Jan-24 00:00 313 1 gusting 5 14.8
2020-Jan-23 23:50 305 4 gusting 6 14.7
2020-Jan-23 23:40 311 5 gusting 6 14.7
2020-Jan-23 23:30 319 5 gusting 7 14.7
2020-Jan-23 23:20 333 1 gusting 7 14.7
2020-Jan-23 23:10 293 4 gusting 8 14.7
2020-Jan-23 23:00 334 1 gusting 7 14.7
2020-Jan-23 22:50 333 5 gusting 6 14.7
2020-Jan-23 22:40 314 3 gusting 9 14.7
2020-Jan-23 22:30 331 3 gusting 7 14.7
2020-Jan-23 22:20 319 3 gusting 7 14.7
2020-Jan-23 22:10 338 1 gusting 9 14.6
2020-Jan-23 22:00 013 2 gusting 7 14.7
2020-Jan-23 21:50 335 2 gusting 9 14.7
2020-Jan-23 21:40 360 7 gusting 10 14.8
2020-Jan-23 21:30 315 2 gusting 12 14.9
2020-Jan-23 21:00 337 4 gusting 8 15.3
2020-Jan-23 20:50 345 2 gusting 9 15.4
2020-Jan-23 20:40 317 4 gusting 12 15.5
2020-Jan-23 20:30 056 3 gusting 11 15.6
2020-Jan-23 20:20 005 3 gusting 12 15.8
2020-Jan-23 20:00 310 2 gusting 12 15.9
2020-Jan-23 19:50 325 7 gusting 12 15.9
2020-Jan-23 19:40 333 1 gusting 12 15.9
2020-Jan-23 19:30 355 4 gusting 10 16.0
2020-Jan-23 19:20 315 5 gusting 12 16.1
2020-Jan-23 19:00 329 6 gusting 13 16.6
2020-Jan-23 18:50 355 1 gusting 13 16.7
2020-Jan-23 18:40 351 2 gusting 12 16.8
2020-Jan-23 18:30 311 3 gusting 11 17.0
2020-Jan-23 18:00 336 1 gusting 9 17.4
2020-Jan-23 17:50 304 1 gusting 12 17.3
2020-Jan-23 17:40 321 2 gusting 10 17.3
2020-Jan-23 17:30 023 4 gusting 12 17.3
2020-Jan-23 17:20 328 6 gusting 13 17.4
2020-Jan-23 17:00 319 3 gusting 11 18.1
2020-Jan-23 16:50 328 6 gusting 9 18.3
2020-Jan-23 16:40 322 5 gusting 12 18.4
2020-Jan-23 16:30 333 3 gusting 8 18.2
2020-Jan-23 16:20 313 4 gusting 10 17.8
2020-Jan-23 16:00 005 1 gusting 12 17.6
2020-Jan-23 15:50 335 3 gusting 7 17.8
2020-Jan-23 15:40 315 4 gusting 10 17.8
2020-Jan-23 15:30 326 1 gusting 8 17.7
2020-Jan-23 15:20 338 2 gusting 9 17.6
2020-Jan-23 15:00 019 6 gusting 9 17.0